| time (UTC) | temp F | wind direction | speed knots | gust knots | rain 1hr in | rain 24hr in | rain mn in | humidity % | barometer mb |
| 20260506105007 | 50 | 33 | 1.7 | 2.6 | 0.00 | 0.00 | 0.00 | 93 | 1019.5 |
| 20260506104520 | 50 | 46 | 1.7 | 1.7 | 0.00 | 0.00 | 0.00 | 93 | 1019.5 |
| 20260506103004 | 50 | 54 | 0.0 | 1.7 | 0.00 | 0.00 | 0.00 | 93 | 1019.5 |
| 20260506102504 | 50 | 54 | 0.9 | 1.7 | 0.00 | 0.00 | 0.00 | 93 | 1019.6 |
| 20260506102004 | 49 | 54 | 0.0 | 1.7 | 0.00 | 0.00 | 0.00 | 93 | 1019.6 |
| 20260506101510 | 49 | 47 | 0.0 | 0.0 | 0.00 | 0.00 | 0.00 | 93 | 1019.6 |
| 20260506101008 | 49 | 47 | 0.0 | 0.0 | 0.00 | 0.00 | 0.00 | 93 | 1019.6 |
| 20260506100504 | 49 | 46 | 0.0 | 1.7 | 0.00 | 0.00 | 0.00 | 93 | 1019.7 |
| 20260506100013 | 49 | 46 | 0.0 | 1.7 | 0.00 | 0.00 | 0.00 | 92 | 1019.7 |
| 20260506095504 | 48 | 59 | 0.0 | 1.7 | 0.00 | 0.00 | 0.00 | 92 | 1019.7 |
| 20260506095005 | 48 | 59 | 0.0 | 1.7 | 0.00 | 0.00 | 0.00 | 92 | 1019.8 |
| 20260506094521 | 48 | 61 | 0.0 | 1.7 | 0.00 | 0.00 | 0.00 | 92 | 1019.8 |
| 20260506094007 | 48 | 61 | 0.0 | 1.7 | 0.00 | 0.00 | 0.00 | 92 | 1019.8 |
| 20260506092507 | 48 | 52 | 0.0 | 1.7 | 0.00 | 0.00 | 0.00 | 91 | 1019.8 |
| 20260506092004 | 48 | 52 | 0.0 | 1.7 | 0.00 | 0.00 | 0.00 | 91 | 1019.7 |
| 20260506091508 | 48 | 52 | 0.0 | 1.7 | 0.00 | 0.00 | 0.00 | 90 | 1019.7 |
| 20260506091003 | 49 | 52 | 0.0 | 1.7 | 0.00 | 0.00 | 0.00 | 90 | 1019.6 |
| 20260506090504 | 49 | 52 | 0.0 | 1.7 | 0.00 | 0.00 | 0.00 | 91 | 1019.7 |
| 20260506090011 | 49 | 52 | 0.9 | 3.5 | 0.00 | 0.00 | 0.00 | 91 | 1019.8 |
| 20260506085505 | 49 | 61 | 0.9 | 3.5 | 0.00 | 0.00 | 0.00 | 91 | 1019.7 |
| 20260506084517 | 49 | 55 | 0.0 | 1.7 | 0.00 | 0.00 | 0.00 | 90 | 1019.6 |
| 20260506083507 | 49 | 32 | 1.7 | 2.6 | 0.00 | 0.00 | 0.00 | 89 | 1019.4 |
| 20260506083019 | 49 | 58 | 0.9 | 1.7 | 0.00 | 0.00 | 0.00 | 89 | 1019.4 |
| 20260506082511 | 50 | 52 | 0.0 | 1.7 | 0.00 | 0.00 | 0.00 | 89 | 1019.4 |
| 20260506081524 | 50 | 52 | 0.0 | 2.6 | 0.00 | 0.00 | 0.00 | 89 | 1019.4 |
| 20260506080504 | 51 | 27 | 0.0 | 1.7 | 0.00 | 0.00 | 0.00 | 88 | 1019.5 |
| 20260506073510 | 52 | 27 | 0.0 | 1.7 | 0.00 | 0.00 | 0.00 | 86 | 1019.5 |
| 20260506073018 | 52 | 27 | 0.0 | 1.7 | 0.00 | 0.00 | 0.00 | 86 | 1019.4 |
| 20260506071524 | 53 | 27 | 0.9 | 1.7 | 0.00 | 0.00 | 0.00 | 86 | 1019.4 |
| 20260506070507 | 53 | 23 | 0.0 | 1.7 | 0.00 | 0.00 | 0.00 | 86 | 1019.3 |
| 20260506061520 | 53 | 336 | 0.0 | 0.0 | 0.00 | 0.00 | 0.00 | 86 | 1019.1 |
| 20260506044525 | 54 | 336 | 0.0 | 1.7 | 0.00 | 0.00 | 0.00 | 85 | 1018.6 |
| 20260506043013 | 54 | 336 | 0.0 | 0.0 | 0.00 | 0.00 | 0.00 | 84 | 1018.6 |
| 20260506042504 | 54 | 336 | 0.0 | 0.0 | 0.00 | 0.00 | 0.00 | 84 | 1018.6 |
| 20260506041518 | 54 | 336 | 0.0 | 0.0 | 0.00 | 0.00 | 0.00 | 84 | 1018.6 |
| 20260506040021 | 54 | 336 | 0.0 | 0.0 | 0.00 | 0.00 | 0.00 | 84 | 1018.5 |
| 20260506035508 | 54 | 336 | 0.0 | 0.0 | 0.00 | 0.00 | 0.00 | 84 | 1018.3 |
| 20260506035008 | 54 | 336 | 0.0 | 0.0 | 0.00 | 0.00 | 0.00 | 84 | 1018.2 |
| 20260506034523 | 54 | 336 | 0.0 | 0.0 | 0.00 | 0.00 | 0.00 | 83 | 1018.1 |
| 20260506034009 | 54 | 336 | 0.0 | 0.0 | 0.00 | 0.00 | 0.00 | 83 | 1018.0 |
| 20260506033508 | 54 | 336 | 0.0 | 0.0 | 0.00 | 0.00 | 0.00 | 83 | 1017.9 |
| 20260506033026 | 54 | 336 | 0.0 | 0.9 | 0.00 | 0.00 | 0.00 | 83 | 1017.8 |
| 20260506032509 | 54 | 336 | 0.0 | 0.9 | 0.00 | 0.00 | 0.00 | 83 | 1017.7 |
| 20260506031513 | 55 | 336 | 0.0 | 1.7 | 0.00 | 0.00 | 0.00 | 82 | 1017.7 |
| 20260506030018 | 55 | 336 | 0.0 | 1.7 | 0.00 | 0.00 | 0.00 | 81 | 1017.4 |
| 20260506024521 | 55 | 261 | 0.9 | 2.6 | 0.00 | 0.00 | 0.00 | 79 | 1017.4 |
| 20260506024010 | 55 | 275 | 0.0 | 3.5 | 0.00 | 0.00 | 0.00 | 79 | 1017.5 |
| 20260506023507 | 56 | 360 | 0.9 | 3.5 | 0.00 | 0.00 | 0.00 | 78 | 1017.5 |
| 20260506023025 | 56 | 285 | 0.9 | 2.6 | 0.00 | 0.00 | 0.00 | 77 | 1017.5 |
| 20260506022508 | 57 | 271 | 0.9 | 2.6 | 0.00 | 0.00 | 0.00 | 76 | 1017.5 |
| 20260506020030 | 60 | 297 | 0.9 | 3.5 | 0.00 | 0.00 | 0.00 | 70 | 1017.4 |
| 20260506013023 | 60 | 275 | 0.9 | 3.5 | 0.00 | 0.00 | 0.00 | 67 | 1017.2 |
| 20260506005003 | 58 | 296 | 1.7 | 6.1 | 0.00 | 0.00 | 0.00 | 74 | 1017.1 |
| 20260506003508 | 58 | 310 | 0.0 | 3.5 | 0.00 | 0.00 | 0.00 | 74 | 1017.1 |
| 20260506003025 | 58 | 258 | 0.9 | 3.5 | 0.00 | 0.00 | 0.00 | 74 | 1017.1 |
| 20260506002011 | 58 | 279 | 0.9 | 5.2 | 0.00 | 0.00 | 0.00 | 75 | 1017.1 |
| 20260506001524 | 58 | 186 | 0.9 | 6.1 | 0.00 | 0.00 | 0.00 | 74 | 1017.0 |
| 20260506000504 | 58 | 277 | 0.9 | 3.5 | 0.00 | 0.00 | 0.00 | 75 | 1016.8 |
| 20260506000010 | 58 | 234 | 0.9 | 6.1 | 0.00 | 0.00 | 0.00 | 76 | 1016.8 |
| 20260505235504 | 58 | 222 | 2.6 | 6.1 | 0.00 | 0.00 | 0.00 | 75 | 1016.8 |
| 20260505233021 | 57 | 329 | 0.0 | 6.1 | 0.00 | 0.00 | 0.00 | 77 | 1016.8 |
| 20260505231529 | 57 | 215 | 2.6 | 8.7 | 0.00 | 0.00 | 0.00 | 78 | 1016.9 |
| 20260505230509 | 57 | 211 | 2.6 | 7.0 | 0.00 | 0.00 | 0.00 | 78 | 1016.8 |
| 20260505224514 | 58 | 223 | 3.5 | 9.6 | 0.00 | 0.00 | 0.00 | 78 | 1017.0 |
| 20260505223017 | 58 | 231 | 7.0 | 11.3 | 0.00 | 0.00 | 0.00 | 75 | 1017.1 |
| 20260505222013 | 58 | 282 | 5.2 | 9.6 | 0.00 | 0.00 | 0.00 | 76 | 1017.0 |
| 20260505215508 | 58 | 306 | 4.3 | 7.8 | 0.00 | 0.00 | 0.00 | 76 | 1017.0 |
| 20260505214003 | 57 | 242 | 4.3 | 8.7 | 0.00 | 0.00 | 0.00 | 75 | 1017.1 |
| 20260505211006 | 58 | 211 | 2.6 | 10.4 | 0.00 | 0.00 | 0.00 | 74 | 1017.2 |
| 20260505210025 | 58 | 217 | 6.1 | 8.7 | 0.00 | 0.00 | 0.00 | 73 | 1017.1 |
| 20260505204003 | 58 | 213 | 6.1 | 10.4 | 0.00 | 0.00 | 0.00 | 73 | 1017.1 |
| 20260505200508 | 57 | 230 | 5.2 | 9.6 | 0.00 | 0.00 | 0.00 | 75 | 1017.4 |
| 20260505195010 | 57 | 237 | 3.5 | 7.8 | 0.00 | 0.00 | 0.00 | 73 | 1017.4 |
| 20260505193027 | 57 | 220 | 3.5 | 7.8 | 0.00 | 0.00 | 0.00 | 75 | 1017.4 |
| 20260505192503 | 57 | 215 | 3.5 | 7.8 | 0.00 | 0.00 | 0.00 | 75 | 1017.4 |
| 20260505191006 | 57 | 221 | 1.7 | 6.1 | 0.00 | 0.00 | 0.00 | 74 | 1017.6 |
| 20260505190504 | 57 | 223 | 2.6 | 6.1 | 0.00 | 0.00 | 0.00 | 74 | 1017.6 |
| 20260505190021 | 57 | 234 | 1.7 | 6.1 | 0.00 | 0.00 | 0.00 | 74 | 1017.6 |
| 20260505185509 | 57 | 219 | 0.0 | 6.1 | 0.00 | 0.00 | 0.00 | 75 | 1017.6 |
| 20260505185009 | 57 | 223 | 2.6 | 5.2 | 0.00 | 0.00 | 0.00 | 76 | 1017.6 |
| 20260505184528 | 56 | 213 | 1.7 | 6.1 | 0.00 | 0.00 | 0.00 | 75 | 1017.6 |
| 20260505184006 | 57 | 223 | 0.9 | 6.1 | 0.00 | 0.00 | 0.00 | 74 | 1017.6 |
| 20260505183509 | 57 | 219 | 1.7 | 2.6 | 0.00 | 0.00 | 0.00 | 74 | 1017.6 |
| 20260505183024 | 57 | 275 | 0.0 | 2.6 | 0.00 | 0.00 | 0.00 | 75 | 1017.6 |
| 20260505182508 | 56 | 217 | 0.9 | 3.5 | 0.00 | 0.00 | 0.00 | 77 | 1017.5 |
| 20260505182018 | 56 | 232 | 0.0 | 3.5 | 0.00 | 0.00 | 0.00 | 77 | 1017.4 |
| 20260505180504 | 55 | 76 | 0.0 | 2.6 | 0.00 | 0.00 | 0.00 | 77 | 1017.4 |
| 20260505180019 | 55 | 244 | 0.0 | 2.6 | 0.00 | 0.00 | 0.00 | 78 | 1017.4 |
| 20260505175504 | 55 | 263 | 0.0 | 3.5 | 0.00 | 0.00 | 0.00 | 78 | 1017.4 |
| 20260505175009 | 55 | 284 | 1.7 | 3.5 | 0.00 | 0.00 | 0.00 | 78 | 1017.3 |
| 20260505174534 | 54 | 167 | 0.0 | 3.5 | 0.00 | 0.00 | 0.00 | 79 | 1017.2 |
| 20260505174010 | 54 | 279 | 1.7 | 3.5 | 0.00 | 0.00 | 0.00 | 78 | 1017.2 |
| 20260505173509 | 54 | 279 | 0.0 | 2.6 | 0.00 | 0.00 | 0.00 | 78 | 1017.2 |
| 20260505173025 | 54 | 279 | 0.9 | 2.6 | 0.00 | 0.00 | 0.00 | 78 | 1017.1 |
| 20260505172512 | 54 | 244 | 0.9 | 1.7 | 0.00 | 0.00 | 0.00 | 78 | 1017.1 |
| 20260505171517 | 54 | 229 | 0.0 | 1.7 | 0.00 | 0.00 | 0.00 | 1017.2 | |
| 20260505171005 | 55 | 263 | 0.9 | 2.6 | 0.00 | 0.00 | 0.00 | 1017.2 | |
| 20260505165002 | 55 | 238 | 0.9 | 3.5 | 0.00 | 0.00 | 0.00 | 74 | 1017.0 |
| 20260505163009 | 56 | 273 | 0.9 | 5.2 | 0.00 | 0.00 | 0.00 | 73 | 1016.7 |
| 20260505162003 | 55 | 207 | 1.7 | 2.6 | 0.00 | 0.00 | 0.00 | 72 | 1016.5 |
| 20260505161004 | 55 | 221 | 0.9 | 3.5 | 0.00 | 0.00 | 0.00 | 73 | 1016.5 |
| 20260505152003 | 52 | 170 | 0.0 | 1.7 | 0.00 | 0.00 | 0.00 | 80 | 1016.4 |
| 20260505151508 | 52 | 207 | 0.0 | 1.7 | 0.00 | 0.00 | 0.00 | 81 | 1016.4 |
| 20260505151003 | 52 | 207 | 0.0 | 1.7 | 0.00 | 0.00 | 0.00 | 81 | 1016.3 |
| 20260505150503 | 51 | 246 | 0.0 | 1.7 | 0.00 | 0.00 | 0.00 | 81 | 1016.4 |
| 20260505140503 | 48 | 126 | 0.0 | 3.5 | 0.00 | 0.00 | 0.00 | 85 | 1015.8 |
| 20260505125003 | 48 | 11 | 0.9 | 6.1 | 0.00 | 0.00 | 0.00 | 86 | 1015.7 |
| 20260505124513 | 48 | 25 | 2.6 | 3.5 | 0.00 | 0.00 | 0.00 | 86 | 1015.7 |
| 20260505124007 | 48 | 38 | 0.9 | 3.5 | 0.00 | 0.00 | 0.00 | 86 | 1015.7 |
| 20260505123506 | 48 | 16 | 0.9 | 4.3 | 0.00 | 0.00 | 0.00 | 86 | 1015.7 |
| 20260505122504 | 48 | 34 | 2.6 | 5.2 | 0.00 | 0.00 | 0.00 | 86 | 1015.7 |
| 20260505122009 | 47 | 9 | 0.9 | 2.6 | 0.00 | 0.00 | 0.00 | 86 | 1015.7 |
| 20260505120509 | 48 | 9 | 0.0 | 2.6 | 0.00 | 0.00 | 0.00 | 86 | 1015.6 |
| 20260505120007 | 48 | 336 | 0.0 | 3.5 | 0.00 | 0.00 | 0.00 | 86 | 1015.5 |
| 20260505115502 | 48 | 352 | 0.9 | 4.3 | 0.00 | 0.00 | 0.00 | 86 | 1015.5 |
| 20260505115002 | 48 | 38 | 1.7 | 4.3 | 0.00 | 0.00 | 0.00 | 86 | 1015.5 |
| 20260505114513 | 48 | 341 | 0.0 | 2.6 | 0.00 | 0.00 | 0.00 | 87 | 1015.5 |
| 20260505114003 | 48 | 331 | 0.9 | 2.6 | 0.00 | 0.00 | 0.00 | 87 | 1015.4 |
| 20260505113504 | 48 | 69 | 0.0 | 1.7 | 0.00 | 0.00 | 0.00 | 87 | 1015.5 |
| 20260505113017 | 48 | 335 | 0.0 | 2.6 | 0.00 | 0.00 | 0.00 | 87 | 1015.5 |
| 20260505112510 | 48 | 298 | 0.9 | 2.6 | 0.00 | 0.00 | 0.00 | 87 | 1015.5 |
| 20260505112007 | 48 | 9 | 0.0 | 1.7 | 0.00 | 0.00 | 0.00 | 87 | 1015.5 |
| 20260505111524 | 48 | 303 | 0.0 | 1.7 | 0.00 | 0.00 | 0.00 | 86 | 1015.4 |
| 20260505111008 | 48 | 303 | 0.0 | 1.7 | 0.00 | 0.00 | 0.00 | 86 | 1015.5 |
| 20260505110508 | 48 | 17 | 0.0 | 1.7 | 0.00 | 0.00 | 0.00 | 86 | 1015.5 |